Regional Weather Roundup
Issued by NWS

Home | Current Version | Previous Version | Text Only | Print | Product List | Glossary Off
Versions: 1 2 3 4 5 6 7 8 9 10 11 12 13 14 15 16 17 18 19 20 21 22 23 24 25 26 27 28 29 30 31 32 33 34 35 36 37 38 39 40 41 42 43 44 45 46 47 48 49 50

000
ASUS45 KBOU 051107
RWRCO

WEATHER ROUNDUP FOR COLORADO
NATIONAL WEATHER SERVICE DENVER/BOULDER CO
500 AM MDT THU MAY 05 2016

NOTE: "FAIR" INDICATES FEW OR NO CLOUDS BELOW 12000 FEET WITH NO
SIGNIFICANT WEATHER AND/OR OBSTRUCTIONS TO VISIBILITY.

COZ001>005-013-030-031-051200-
...NORTHWEST COLORADO...

CITY           SKY/WX    TMP DP  RH WIND       PRES   REMARKS
CRAIG          FAIR      34  31  88 CALM      30.18S
HAYDEN         FAIR      43  27  52 E12       30.20S
MEEKER         FAIR      38  30  73 NE3       30.19S
MOUNT WERNER   NOT AVBL
STEAMBOAT SPGS FAIR      38  28  68 CALM      30.24R
WALDEN         FAIR      30  21  69 SE5       30.30S WCI  25
$$

COZ006>008-011-051200-
...WEST CENTRAL VALLEYS...

CITY           SKY/WX    TMP DP  RH WIND       PRES   REMARKS
GRAND JUNCTION FAIR      54  31  41 SE16      30.08S
MONTROSE       FAIR      47  28  47 S7        30.18R
EAGLE          FAIR      39  28  65 CALM      30.28S
RIFLE          FAIR      41  32  70 S3        30.17S
DELTA          NOT AVBL
NUCLA          NOT AVBL
$$

COZ017>023-064>068-051200-
...SOUTHWEST COLORADO...

CITY           SKY/WX    TMP DP  RH WIND       PRES   REMARKS
DURANGO        FAIR      34  29  82 CALM      30.24S
CORTEZ         FAIR      41  29  62 CALM      30.16F
PAGOSA SPRINGS FAIR      36  26  67 CALM      30.32R
TELLURIDE      FAIR      42  23  47 SE9       30.36S
WOLF CREEK PAS FAIR      32  14  47 SW13      30.53S WCI  22
$$

COZ009-010-012-014-032>034-037-058>063-051200-
...CENTRAL COLORADO...

CITY           SKY/WX    TMP DP  RH WIND       PRES   REMARKS
ASPEN          FAIR      41  25  53 SW10      30.28S
BUENA VISTA    FAIR      37  27  66 CALM      30.33R
COPPER MTN     NOT AVBL
BERTHOUD PASS  FAIR      32  21  64 NW22      30.48F WCI  19
COTTONWOOD PAS FAIR      46  19  34 W6        30.39S
GUNNISON       FAIR      34  25  69 CALM      30.35S
KREMMLING      FAIR      30  27  86 CALM      30.32R
LEADVILLE      FAIR      29  18  63 CALM      30.39R
MONARCH PASS   FAIR      34  21  60 W16       30.59S WCI  23
SALIDA         FAIR      40  30  66 W3        30.39R
SUNLIGHT       FAIR      41  21  45 CALM      30.45R
WILKERSON PASS FAIR      36  23  60 W6        30.48R
$$

COZ069>075-051200-
...SAN LUIS VALLEY/SANGRE DE CRISTO MOUNTAINS...

CITY           SKY/WX    TMP DP  RH WIND       PRES   REMARKS
ALAMOSA        FAIR      36  29  75 E7        30.29S
LA VETA PASS   FAIR      39  21  48 S10G18    30.39R
SAGUACHE       FAIR      36  30  80 NW6       30.32R
$$

COZ035-036-038>040-051200-
...NORTHERN COLORADO FRONT RANGE...

CITY           SKY/WX    TMP DP  RH WIND       PRES   REMARKS
DENVER INTL AP FAIR      51  32  48 SW10      30.12S
DMNS CITY PARK   N/A     51  32  46 SE7       30.13R
AURORA         FAIR      47  34  59 CALM      30.14S
FRONT RANGE AP NOT AVBL
ERIE MUNI ARPT FAIR      41  38  88 CALM      30.12S
BOULDER MUN AP FAIR      45  37  76 CALM      30.13R
CENTENNIAL     FAIR      50  31  48 SW7       30.14S
BROOMFIELD     FAIR      50  34  53 CALM      30.14S
FORT COLLINS   FAIR      46  36  66 N7        30.13R
LONGMONT       FAIR      43  36  77 CALM      30.14S
$$

COZ041-046-047-076>085-087-088-051200-
...PIKES PEAK/PALMER DIVIDE AND SOUTHERN FOOTHILLS...

CITY           SKY/WX    TMP DP  RH WIND       PRES   REMARKS
COLO. SPRINGS  FAIR      44  33  65 N10       30.19S
A. F. ACADEMY  FAIR      39  32  75 N10       30.20S
SCHRIEVER AFB  NOT AVBL
ELLICOTT       FAIR     N/A N/A N/A NE7       30.17S
FALCON         NOT AVBL
FORT CARSON    FAIR      46  32  59 N9        30.16S
LIMON          FAIR      35  35 100 NW3       30.16S
MONUMENT HILL  FAIR      37  32  81 S9        30.23S
TRINIDAD       FAIR      50  29  44 W12       30.16R
$$

COZ042>045-048>051-090-091-051200-
...NORTHEAST COLORADO...

CITY           SKY/WX    TMP DP  RH WIND       PRES   REMARKS
GREELEY ARPT   FAIR      41  37  87 NW5       30.12R
AKRON          FAIR      51  39  63 S10       30.10S
BURLINGTON     FAIR      48  40  73 S9        30.12S
WRAY           NOT AVBL
STERLING       FAIR      41  39  93 W3        30.08S
HOLYOKE        NOT AVBL
FORT MORGAN    FAIR      47  38  69 W6        30.11S
$$

COZ086-089-092>099-051200-
...SOUTHEAST COLORADO...

CITY           SKY/WX    TMP DP  RH WIND       PRES   REMARKS
PUEBLO         FAIR      47  38  71 NW6       30.13R
LA JUNTA       FAIR      50  39  66 SW8       30.09S
LAMAR          FAIR      47  42  83 E5        30.07F
SPRINGFIELD      N/A     48  38  68 S13       30.12F
$$



USA.gov is the U.S. government's official web portal to all federal, state and local government web resources and services.